1326412833586,91.0024
1326412893586,90.5422
1326412953586,90.8826
1326413013586,91.0102
1326413073586,91.0601
1326413133586,91.0055
1326413193586,90.8729
1326413253586,90.5923
1326413313586,90.5064
1326413373586,90.0380
1326413433586,90.5930
1326413493586,90.7716
1326413553586,90.4286
1326413613586,90.4950
1326413673586,90.4831
1326413733586,90.8208
1326413793586,90.5498
1326413853586,90.6095
1326413913586,90.7994
1326413973586,90.0653
1326414033586,90.8423
1326414093586,90.7950
1326414153586,90.6386
1326414213586,90.1490
1326414273586,90.5621
1326414333586,90.7074
1326414393586,90.7760
1326414453586,90.3602
1326414513586,90.7536
1326414573586,90.5839
1326414633586,90.5630
1326414693586,90.5694
1326414753586,90.5842
1326414813586,90.7366
1326414873586,90.6909
1326414933586,90.5172
1326414993586,90.3845
1326415053586,90.7388
1326415113586,90.3277
1326415173586,90.4199
1326415233586,90.6122
1326415293586,90.1378
1326415353586,90.0158
1326415413586,90.6654
1326415473586,90.4614
1326415533586,90.6411
1326415593586,90.4062
1326415653586,90.3170
1326415713586,90.1103
1326415773586,90.7213
1326415833586,90.4327
1326415893586,90.9005
1326415953586,90.5692
1326416013586,90.8756
1326416073586,90.7243
1326416133586,90.6681
1326416193586,91.0788
1326416253586,91.0718
1326416313586,90.4105
1326416373586,91.3503
1326416433596,90.6429
1326416493596,90.8802
1326416553596,91.1018
1326416613596,90.6866
1326416673596,91.1880
1326416733596,90.8893
1326416793596,91.2679
1326416853596,91.0678
1326416913596,91.2054
1326416973596,91.1409
1326417033596,90.6843
1326417093596,90.8470
1326417153596,91.1210
1326417213596,90.8044
1326417273596,91.0585
1326417333596,91.6342
1326417393596,91.3342
1326417453596,91.2379
1326417513596,91.3139
1326417573596,91.1182
1326417633596,91.3910
1326417693596,90.8808
1326417753596,91.1624
1326417813596,91.4159
1326417873596,91.5558
1326417933596,91.5486
1326417993596,91.7106
1326418053596,91.5544
1326418113596,91.1101
1326418173596,91.0265
1326418233596,91.4589
1326418293596,91.2227
1326418353596,91.2772
1326418413596,91.2292
1326418473596,91.4305
1326418533596,91.3886
1326418593596,91.1384
1326418653596,91.4095
1326418713596,91.2508
1326418773596,90.9178
1326418833596,91.1533
1326418893596,91.0411
1326418953596,91.5119
1326419013596,91.7417
1326419073596,91.5855
1326419133596,91.4712
1326419193596,91.3087
1326419253596,91.6621
1326419313596,91.3876
1326419373596,91.4199
1326419433596,91.5745
1326419493596,91.3456
1326419553596,91.3005
1326419613596,91.5292
1326419673596,91.4161
1326419733596,91.6502
1326419793596,91.4413
1326419853596,91.8271
1326419913596,91.6853
1326419973596,91.6563
1326420033606,91.5471
1326420093606,91.5894
1326420153606,91.7349
1326420213606,91.4985
1326420273606,91.4170
1326420333606,91.5332
1326420393606,91.8882
1326420453606,91.2211
1326420513606,91.2352
1326420573606,91.5339
1326420633606,91.4693
1326420693606,91.2742
1326420753606,91.5068
1326420813606,91.0793
1326420873606,91.4729
1326420933606,91.0745
1326420993606,91.1834
1326421053606,91.1561
1326421113606,90.9539
1326421173606,91.1812
1326421233606,91.2914
1326421293606,91.1094
1326421353606,91.0818
1326421413606,91.1273
1326421473606,91.4790
1326421533606,91.3912
1326421593606,91.6830
1326421653606,91.3488
1326421713606,90.8688
1326421773606,90.9731
1326421833606,90.8180
1326421893606,91.3552
1326421953606,91.3057
1326422013606,91.3948
1326422073606,91.2364
1326422133606,91.2456
1326422193606,91.5638
1326422253606,91.3021
1326422313606,91.5175
1326422373606,91.2210
1326422433606,91.4006
1326422493606,90.9758
1326422553606,90.9931
1326422613606,91.3943
1326422673606,91.3079
1326422733606,91.3744
1326422793606,91.0629
1326422853606,91.2614
1326422913606,91.1175
1326422973606,91.7703
1326423033606,91.4079
1326423093606,91.5122
1326423153606,91.7585
1326423213606,91.2560
1326423273606,91.2716
1326423333606,91.1989
1326423393606,90.9471
1326423453606,91.3360
1326423513606,91.3914
1326423573606,91.4685
1326423633617,91.0934
1326423693617,91.4630
1326423753617,91.7455
1326423813617,91.3523
1326423873617,91.3557
1326423933617,91.3007
1326423993617,91.2349
1326424053617,91.2353
1326424113617,91.0619
1326424173617,91.2741
1326424233617,91.3600
1326424293617,91.9524
1326424353617,91.3997
1326424413617,91.2385
1326424473617,91.6068
1326424533617,91.2538
1326424593617,91.8422
1326424653617,91.3142
1326424713617,91.2977
1326424773617,91.1821
1326424833617,91.0253
1326424893617,91.0567
1326424953617,91.4802
1326425013617,91.3488
1326425073617,91.0656
1326425133617,90.7956
1326425193617,90.9215
1326425253617,91.4126
1326425313617,91.1343
1326425373617,91.1734
1326425433617,91.1711
1326425493617,90.8286
1326425553617,91.1590
1326425613617,91.0303
1326425673617,91.1883
1326425733617,90.6840
1326425793617,91.0893
1326425853617,91.1334
1326425913617,91.7437
1326425973617,91.1878
1326426033617,90.8726
1326426093617,90.9652
1326426153617,91.2264
1326426213617,90.9694
1326426273617,90.6355
1326426333617,90.9519
1326426393617,91.0022
1326426453617,91.1805
1326426513617,91.1545
1326426573617,91.2816
1326426633617,91.1094
1326426693617,90.9745
1326426753617,91.4516
1326426813617,90.8073
1326426873617,91.3104
1326426933617,91.2429
1326426993617,91.3881
1326427053617,91.0664
1326427113617,90.8016
1326427173617,90.8197
1326427233627,90.8206
1326427293627,90.8723
1326427353627,90.9417
1326427413627,91.1404
1326427473627,91.0645
1326427533627,90.9488
1326427593627,90.9605
1326427653627,91.0864
1326427713627,91.4518
1326427773627,90.4867
1326427833627,91.2004
1326427893627,90.9069
1326427953627,90.6674
1326428013627,90.6392
1326428073627,90.9065
1326428133627,90.6055
1326428193627,91.0491
1326428253627,90.6710
1326428313627,90.6708
1326428373627,90.7601
1326428433627,90.8524
1326428493627,90.5982
1326428553627,90.8991
1326428613627,90.6974
1326428673627,90.3640
1326428733627,90.4777
1326428793627,90.7629
1326428853627,91.2273
1326428913627,91.0604
1326428973627,90.8499
1326429033627,91.0849
1326429093627,90.5012
1326429153627,90.4494
1326429213627,91.0436
1326429273627,91.2069
1326429333627,90.8480
1326429393627,90.8632
1326429453627,90.8821
1326429513627,91.0673
1326429573627,90.7278
1326429633627,91.0191
1326429693627,90.5552
1326429753627,90.5745
1326429813627,90.8973
1326429873627,91.5055
1326429933627,90.4405
1326429993627,91.2783
1326430053627,91.0550
1326430113627,90.9544
1326430173627,90.8126
1326430233627,90.9043
1326430293627,91.1394
1326430353627,90.7214
1326430413627,90.6704
1326430473627,90.8650
1326430533627,90.9556
1326430593627,90.6103
1326430653627,90.8717
1326430713627,90.8403
1326430773627,91.0059
1326430833637,90.6079
1326430893637,90.7855
1326430953637,90.4298
1326431013637,91.0217
1326431073637,90.2503
1326431133637,90.7838
1326431193637,90.9479
1326431253637,90.2822
1326431313637,90.5567
1326431373637,90.2928
1326431433637,91.4682
1326431493637,90.5450
1326431553637,90.3613
1326431613637,90.5776
1326431673637,90.3565
1326431733637,90.5736
1326431793637,90.8042
1326431853637,90.4047
1326431913637,90.2404
1326431973637,90.1747
1326432033637,90.3962
1326432093637,90.9991
1326432153637,90.6747
1326432213637,90.4951
1326432273637,90.6926
1326432333637,90.3726
1326432393637,90.1941
1326432453637,90.4026
1326432513637,90.1608
1326432573637,90.4352
1326432633637,90.2290
1326432693637,90.2399
1326432753637,90.3286
1326432813637,89.8513
1326432873637,90.0023
1326432933637,90.1797
1326432993637,89.7961
1326433053637,90.1542
1326433113637,90.0917
1326433173637,90.0206
1326433233637,90.2984
1326433293637,90.3299
1326433353637,90.6743
1326433413637,90.4407
1326433473637,90.0849
1326433533637,90.6313
1326433593637,90.1507
1326433653637,89.8440
1326433713637,90.5006
1326433773637,90.5664
1326433833637,89.9506
1326433893637,89.9543
1326433953637,90.1654
1326434013637,89.8342
1326434073637,90.3655
1326434133637,90.5268
1326434193637,90.2492
1326434253637,90.4440
1326434313637,89.8665
1326434373637,90.0147
1326434433648,89.7929
1326434493648,90.0425
1326434553648,90.2537
1326434613648,90.0010
1326434673648,89.9478
1326434733648,89.9088
1326434793648,89.7394
1326434853648,89.6544
1326434913648,90.1382
1326434973648,89.6811
1326435033648,90.1263
1326435093648,90.2163
1326435153648,90.4184
1326435213648,89.8814
1326435273648,89.7728
1326435333648,90.2506
1326435393648,89.6087
1326435453648,90.0986
1326435513648,90.0359
1326435573648,89.6664
1326435633648,89.5013
1326435693648,90.0230
1326435753648,89.9048
1326435813648,89.9705
1326435873648,89.8283
1326435933648,89.8089
1326435993648,89.9147
1326436053648,89.7773
1326436113648,90.3027
1326436173648,89.8170
1326436233648,89.7840
1326436293648,89.9330
1326436353648,89.9235
1326436413648,89.9659
1326436473648,90.0313
1326436533648,89.6768
1326436593648,90.1940
1326436653648,89.4672
1326436713648,90.2185
1326436773648,89.5892
1326436833648,89.7819
1326436893648,89.8038
1326436953648,89.7443
1326437013648,89.6520
1326437073648,89.7775
1326437133648,89.4030
1326437193648,89.9944
1326437253648,90.1352
1326437313648,90.0889
1326437373648,89.9733
1326437433648,89.9329
1326437493648,89.7012
1326437553648,89.8925
1326437613648,89.5595
1326437673648,90.3025
1326437733648,89.0127
1326437793648,89.5725
1326437853648,89.7725
1326437913648,89.6323
1326437973648,89.6711
1326438033659,90.0108
1326438093659,89.3583
1326438153659,90.1785
1326438213659,89.6633
1326438273659,89.5693
1326438333659,89.9583
1326438393659,89.9515
1326438453659,90.1506
1326438513659,89.9885
1326438573659,89.6468
1326438633659,89.5686
1326438693659,89.9047
1326438753659,89.5915
1326438813659,89.5761
1326438873659,89.7187
1326438933659,89.5921
1326438993659,89.1963
1326439053659,89.4393
1326439113659,90.2966
1326439173659,90.0267
1326439233659,89.8665
1326439293659,89.6069
1326439353659,89.7790
1326439413659,89.7100
1326439473659,89.5686
1326439533659,89.8577
1326439593659,90.0716
1326439653659,89.9785
1326439713659,89.7759
1326439773659,90.1379
1326439833659,89.8273
1326439893659,89.6401
1326439953659,89.8390
1326440013659,89.6280
1326440073659,89.3722
1326440133659,89.7531
1326440193659,90.0649
1326440253659,90.0161
1326440313659,89.9828
1326440373659,89.7639
1326440433659,90.2971
1326440493659,90.1902
1326440553659,90.2536
1326440613659,89.7021
1326440673659,90.1993
1326440733659,90.1664
1326440793659,89.6954
1326440853659,90.2122
1326440913659,90.3404
1326440973659,90.0656
1326441033659,89.9582
1326441093659,90.5227
1326441153659,90.1918
1326441213659,90.2471
1326441273659,90.3770
1326441333659,90.5746
1326441393659,90.2339
1326441453659,90.5906
1326441513659,90.3861
1326441573659,90.4449
1326441633670,90.8987
1326441693670,90.3777
1326441753670,90.5729
1326441813670,90.5596
1326441873670,90.5017
1326441933670,90.3536
1326441993670,90.5322
1326442053670,90.6368
1326442113670,90.4444
1326442173670,90.4240
1326442233670,90.4015
1326442293670,90.8593
1326442353670,90.7731
1326442413670,90.4494
1326442473670,90.3824
1326442533670,90.9878
1326442593670,90.4871
1326442653670,90.5097
1326442713670,90.9090
1326442773670,90.6958
1326442833670,90.3620
1326442893670,90.3483
1326442953670,90.7878
1326443013670,90.2668
1326443073670,90.2967
1326443133670,90.3210
1326443193670,90.4775
1326443253670,90.0151
1326443313670,90.2302
1326443373670,90.5865
1326443433670,90.4419
1326443493670,90.5348
1326443553670,90.7663
1326443613670,90.2505
1326443673670,90.3459
1326443733670,90.3805
1326443793670,90.2366
1326443853670,90.4335
1326443913670,90.2638
1326443973670,90.6180
1326444033670,90.9462
1326444093670,89.9183
1326444153670,90.9749
1326444213670,90.5306
1326444273670,90.4384
1326444333670,90.7369
1326444393670,90.5428
1326444453670,90.5515
1326444513670,90.5608
1326444573670,90.5526
1326444633670,90.3661
1326444693670,90.5814
1326444753670,90.7631
1326444813670,90.1570
1326444873670,90.0617
1326444933670,90.6233
1326444993670,90.6637
1326445053670,90.5012
1326445113670,90.4763
1326445173670,91.1394
1326445233681,90.7487
1326445293681,90.5299
1326445353681,90.0424
1326445413681,90.6670
1326445473681,90.8285
1326445533681,90.9790
1326445593681,90.6088
1326445653681,90.2391
1326445713681,90.2657
1326445773681,90.5326
1326445833681,90.4064
1326445893681,90.3622
1326446433681,90.6092
1326446493681,90.2534
1326446553681,90.3779
1326446613681,91.1521
1326446673681,90.5699
1326446733681,90.7370
1326446793681,91.3015
1326446853681,90.6436
1326446913681,90.4656
1326446973681,90.8136
1326447033681,91.0132
1326447093681,90.5863
1326447153681,91.1088
1326447213681,90.7167
1326447273681,90.2685
1326447333681,90.8383
1326447393681,90.6724
1326447453681,90.6739
1326447513681,90.6273
1326447573681,90.6295
1326447633681,90.8291
1326447693681,90.4499
1326447753681,90.6559
1326447813681,90.7134
1326447873681,90.3210
1326447933681,90.1591
1326447993681,90.4171
1326448053681,90.3407
1326448113681,90.8149
1326448173681,90.5249
1326448233681,90.6793
1326448293681,90.8979
1326448353681,90.6240
1326448413681,90.4789
1326448473681,90.2003
1326448533681,90.4378
1326448593681,89.9333
1326448653681,90.6594
1326448713681,90.6299
1326448773681,90.6516
1326448833692,90.6392
1326448893692,90.3349
1326448953692,90.7937
1326449013692,90.2584
1326449073692,90.1662
1326449133692,89.8444
1326449193692,90.5494
1326449253692,90.5104
1326449313692,90.4312
1326449373692,90.6806
1326449433692,90.3802
1326449493692,90.6371
1326449553692,90.4704
1326449613692,90.3916
1326449673692,90.4426
1326449733692,90.1395
1326449793692,90.8749
1326449853692,90.6216
1326449913692,90.4319
1326449973692,90.3374
1326450033692,90.3639
1326450093692,90.4823
1326450153692,89.9128
1326450213692,90.2234
1326450273692,90.1878
1326450333692,90.3459
1326450393692,90.2146
1326450453692,90.0912
1326450513692,90.1609
1326450573692,90.1766
1326450633692,90.7476
1326450693692,90.2797
1326450753692,90.3346
1326450813692,90.3551
1326450873692,90.6385
1326450933692,90.6732
1326450993692,90.2906
1326451053692,90.4708
1326451113692,90.6394
1326451173692,90.1871
1326451233692,90.9980
1326451293692,90.7309
1326451353692,90.5818
1326451413692,90.2514
1326451473692,90.6312
1326451533692,90.4201
1326451593692,90.4000
1326451653692,90.5788
1326451713692,90.0504
1326451773692,90.4258
1326451833692,90.3805
1326451893692,90.3282
1326451953692,90.3723
1326452013692,90.1527
1326452073692,90.5679
1326452133692,90.6162
1326452193692,90.0985
1326452253692,90.3639
1326452313692,90.4635
1326452373692,90.3940
1326452433703,90.1694
1326452493703,90.8786
1326452553703,90.3801
1326452613703,90.3551
1326452673703,90.3877
1326452733703,90.4197
1326452793703,90.3671
1326452853703,90.8720
1326452913703,90.8312
1326452973703,90.9557
1326453033703,90.4179
1326453093703,90.4479
1326453153703,90.2999
1326453213703,90.4134
1326453273703,90.3924
1326453333703,90.5701
1326453393703,90.6053
1326453453703,91.0142
1326453513703,90.5968
1326453573703,90.7842
1326453633703,89.9454
1326453693703,90.2813
1326453753703,90.8015
1326453813703,90.6364
1326453873703,90.2751
1326453933703,90.4191
1326453993703,90.3853
1326454053703,90.3344
1326454113703,89.9842
1326454173703,90.1731
1326454233703,90.5225
1326454293703,90.0709
1326454353703,90.1244
1326454413703,90.1711
1326454473703,90.1884
1326454533703,89.7280
1326454593703,89.4331
1326454653703,89.7597
1326454713703,90.0912
1326454773703,90.2994
1326454833703,89.8788
1326454893703,89.9408
1326454953703,90.1835
1326455013703,89.8948
1326455073703,90.1012
1326455133703,89.7644
1326455193703,89.8347
1326455253703,89.9801
1326455313703,89.8140
1326455373703,89.7677
1326455433703,89.9084
1326455493703,89.6143
1326455553703,89.8010
1326455613703,89.7876
1326455673703,90.0318
1326455733703,89.4374
1326455793703,89.5820
1326455853703,89.5578
1326455913703,89.3307
1326455973703,89.1685
1326456033715,89.4321
1326456093715,89.6497
1326456153715,89.8463
1326456213715,89.3657
1326456273715,89.4597
1326456333715,89.8973
1326456393715,89.3596
1326456453715,89.1638
1326456513715,89.3290
1326456573715,89.1782
1326456633715,89.6194
1326456693715,89.3654
1326456753715,89.4791
1326456813715,89.3920
1326456873715,90.1573
1326456933715,89.1293
1326456993715,89.3756
1326457053715,89.3018
1326457113715,89.2653
1326457173715,89.3521
1326457233715,89.4156
1326457293715,89.3936
1326457353715,89.4001
1326457413715,89.2535
1326457473715,88.8974
1326457533715,89.0958
1326457593715,89.5591
1326457653715,89.2301
1326457713715,89.3567
1326457773715,89.2654
1326457833715,89.1821
1326457893715,89.0951
1326457953715,88.9925
1326458013715,88.9338
1326458073715,89.1526
1326458133715,88.8927
1326458193715,89.4896
1326458253715,89.4975
1326458313715,89.2447
1326458373715,89.3981
1326458433715,89.2330
1326458493715,89.1531
1326458553715,89.0318
1326458613715,88.9770
1326458673715,88.9042
1326458733715,88.6760
1326458793715,89.1037
1326458853715,89.4613
1326458913715,89.0254
1326458973715,89.1375
1326459033715,88.9155
1326459093715,88.7992
1326459153715,88.7133
1326459213715,88.5953
1326459273715,88.7639
1326459333715,89.0445
1326459393715,88.8194
1326459453715,88.5492
1326459513715,88.9573
1326459573715,88.7393
1326459633726,88.8242
1326459693726,88.9140
1326459753726,88.8052
1326459813726,89.5380
1326459873726,88.9236
1326459933726,88.7066
1326459993726,88.3485
1326460053726,89.0023
1326460113726,88.5769
1326460173726,88.9004
1326460233726,89.0233
1326460293726,88.5399
1326460353726,88.8313
1326460413726,88.8312
1326460473726,88.7574
1326460533726,89.0606
1326460593726,88.8523
1326460653726,88.8916
1326460713726,88.6365
1326460773726,88.9288
1326460833726,89.1016
1326460893726,89.0942
1326460953726,89.2529
1326461013726,88.7338
1326461073726,88.6903
1326461133726,88.7511
1326461193726,88.5460
1326461253726,89.2633
1326461313726,89.0114
1326461373726,89.7627
1326461433726,89.2396
1326461493726,89.1979
1326461553726,89.3205
1326461613726,88.9537
1326461673726,89.0462
1326461733726,89.4417
1326461793726,89.4636
1326461853726,89.3069
1326461913726,89.1847
1326461973726,89.4063
1326462033726,89.0247
1326462093726,89.2085
1326462153726,89.5721
1326462213726,89.3900
1326462273726,89.3370
1326462333726,89.5991
1326462393726,89.5375
1326462453726,89.1435
1326462513726,89.0553
1326462573726,89.3172
1326462633726,89.4445
1326462693726,89.5091
1326462753726,89.2203
1326462813726,89.4242
1326462873726,89.5853
1326462933726,89.7749
1326462993726,89.2920
1326463053726,89.4056
1326463113726,89.4672
1326463173726,89.9355
1326463233738,89.3720
1326463293738,89.0086
1326463353738,89.6788
1326463413738,89.6212
1326463473738,89.5377
1326463533738,89.8055
1326463593738,89.8445
1326463653738,89.4799
1326463713738,89.5711
1326463773738,89.6063
1326463833737,89.6501
1326463893737,89.8629
1326463953737,89.7640
1326464013737,89.5451
1326464073737,89.7400
1326464133737,89.6132
1326464193737,89.6437
1326464253738,89.0780
1326464313738,89.0982
1326464373738,90.2287
1326464433738,89.7633
1326464493737,89.8429
1326464553737,89.5497
1326464613738,89.4736
1326464673738,89.3963
1326464733738,89.3840
1326464793738,89.8859
1326464853738,89.5575
1326464913738,89.6124
1326464973738,89.7492
1326465033738,89.3975
1326465093738,89.5170
1326465153737,89.7649
1326465213737,89.5602
1326465273737,89.3708
1326465333737,89.6350
1326465393737,89.9631
1326465453737,89.7241
1326465513737,89.5073
1326465573738,89.8086
1326465633738,90.0514
1326465693738,89.8261
1326465753738,89.5284
1326465813737,90.0667
1326465873737,90.0812
1326465933738,89.6533
1326465993738,89.9785
1326466053738,90.2209
1326466113738,90.1161
1326466173738,90.0192
1326466233738,89.5749
1326466293738,89.8245
1326466353738,89.7750
1326466413738,89.9179
1326466473738,89.8123
1326466533737,89.8844
1326466593737,89.9001
1326466653737,90.4485
1326466713737,90.3921
1326466773737,90.0221
1326466833749,89.7957
1326466893749,89.9304
1326466953749,90.2876
1326467013749,89.6936
1326467073749,90.1553
1326467133749,90.4477
1326467193749,90.3364
1326467253749,90.1938
1326467313749,89.7991
1326467373749,90.1476
1326467433749,90.1384
1326467493749,90.2320
1326467553749,89.9658
1326467613749,90.0760
1326467673749,89.6399
1326467733749,89.7922
1326467793749,90.3667
1326467853749,90.3881
1326467913749,90.6283
1326467973749,90.2525
1326468033749,90.5152
1326468093749,90.1327
1326468153749,90.3274
1326468213749,90.2381
1326468273749,90.3882
1326468333749,90.3992
1326468393749,90.5706
1326468453749,90.4042
1326468513749,90.6128
1326468573749,90.5633
1326468633749,90.2141
1326468693749,90.4074
1326468753749,90.4061
1326468813749,90.4824
1326468873749,90.3883
1326468933749,90.2452
1326468993749,90.1890
1326469053749,90.0263
1326469113749,90.5945
1326469173749,89.9396
1326469233749,90.2410
1326469293749,90.3989
1326469353749,90.2827
1326469413749,90.1530
1326469473749,89.9510
1326469533749,90.8207
1326469593749,90.5134
1326469653749,90.3579
1326469713749,90.5578
1326469773749,90.4597
1326469833749,90.3175
1326469893749,90.6578
1326469953749,90.7438
1326470013749,90.8841
1326470073749,90.2042
1326470133749,90.6200
1326470193749,90.6859
1326470253749,91.1107
1326470313749,91.0925
1326470373749,90.6227
1326470433760,90.7389
1326470493760,90.7226
1326470553760,90.5746
1326470613760,90.9663
1326470673760,90.9046
1326470733760,90.7286
1326470793760,91.1249
1326470853760,91.2221
1326470913760,90.8742
1326470973760,90.5254
1326471033760,91.2077
1326471093760,90.8176
1326471153760,90.6270
1326471213760,90.7671
1326471273760,90.6276
1326471333760,91.0363
1326471393760,90.9963
1326471453760,90.8362
1326471513760,90.8487
1326471573760,91.1258
1326471633760,90.9090
1326471693760,91.1576
1326471753760,91.0316
1326471813760,90.9124
1326471873760,91.3600
1326471933760,91.1976
1326471993760,91.1029
1326472053760,91.4448
1326472113760,90.9117
1326472173760,90.9329
1326472233760,91.3218
1326472293760,91.4499
1326472353760,91.1508
1326472413760,91.0033
1326472473760,91.7015
1326472533760,91.3781
1326472593760,91.3958
1326472653760,91.8079
1326472713760,91.7479
1326472773760,91.4744
1326472833760,91.2291
1326472893760,91.4431
1326472953760,91.4081
1326473013760,91.6696
1326473073760,91.4493
1326473133760,91.5207
1326473193760,91.6109
1326473253760,92.0003
1326473313760,91.3308
1326473373760,91.8699
1326473433760,91.5078
1326473493760,91.7986
1326473553760,91.6262
1326473613760,91.4054
1326473673760,91.7051
1326473733760,91.7788
1326473793760,91.8147
1326473853760,91.5741
1326473913760,91.6142
1326473973760,91.4001
1326474033771,91.6536
1326474093771,91.6470
1326474153771,91.8709
1326474213771,91.8770
1326474273771,91.5036
1326474333771,92.1760
1326474393771,91.1514
1326474453771,92.1200
1326474513771,91.7692
1326474573771,91.6438
1326474633771,91.8270
1326474693771,91.5768
1326474753771,91.5927
1326474813771,92.0281
1326474873771,92.1732
1326474933771,92.4581
1326474993771,91.7508
1326475053771,91.9886
1326475113771,91.7001
1326475173771,91.8357
1326475233771,91.7050
1326475293771,91.5513
1326475353771,91.5236
1326475413771,91.6391
1326475473771,91.6803
1326475533771,91.9695
1326475593771,91.9687
1326475653771,91.8249
1326475713771,91.5222
1326475773771,91.3189
1326475833771,92.1175
1326475893771,91.7967
1326475953771,91.4317
1326476013771,91.9258
1326476073771,92.4354
1326476133771,91.9997
1326476193771,91.4755
1326476253771,91.3165
1326476313771,91.4702
1326476373771,91.7044
1326476433771,92.0068
1326476493771,91.1846
1326476553771,91.6259
1326476613771,92.0598
1326476673771,91.7691
1326476733771,91.2938
1326476793771,91.3993
1326476853771,91.7833
1326476913771,91.6111
1326476973771,91.3672
1326477033771,91.0434
1326477093771,91.7373
1326477153771,91.5104
1326477213771,91.4227
1326477273771,91.6575
1326477333771,91.7677
1326477393771,92.0369
1326477453771,91.9918
1326477513771,91.9151
1326477573771,91.7460
1326477633782,91.6667
1326477693782,91.3421
1326477753782,91.6860
1326477813782,91.5684
1326477873782,91.1418
1326477933782,91.2972
1326477993782,91.8699
1326478053782,91.6534
1326478113782,91.3879
1326478173782,92.0282
1326478233782,91.4277
1326478293782,91.4926
1326478353782,91.7560
1326478413782,91.7238
1326478473782,91.5132
1326478533782,91.4115
1326478593782,91.2179
1326478653782,91.7606